TimeMST,TemperatureF,Dew PointF,Humidity,Sea Level PressureIn,VisibilityMPH,Wind Direction,Wind SpeedMPH,Gust SpeedMPH,PrecipitationIn,Events,Conditions,WindDirDegrees,DateUTC
12:53 AM,46.9,33.1,59,29.81,10.0,North,8.1,-,N/A,,Clear,350,2012-12-06 07:53:00
1:53 AM,46.0,32.0,58,29.84,10.0,WNW,9.2,-,N/A,,Clear,300,2012-12-06 08:53:00
2:53 AM,46.9,35.1,63,29.88,10.0,North,12.7,-,N/A,,Overcast,10,2012-12-06 09:53:00
3:53 AM,43.0,30.0,60,29.93,10.0,NNE,13.8,-,N/A,,Overcast,30,2012-12-06 10:53:00
4:53 AM,42.8,26.6,53,30.00,10.0,NE,11.5,-,N/A,,Overcast,50,2012-12-06 11:53:00
5:53 AM,39.0,25.0,57,30.00,10.0,NNE,10.4,-,N/A,,Overcast,20,2012-12-06 12:53:00
6:53 AM,37.0,27.0,67,30.03,10.0,NE,11.5,-,N/A,,Overcast,40,2012-12-06 13:53:00
7:53 AM,35.1,26.1,70,30.06,10.0,NE,8.1,-,N/A,,Overcast,50,2012-12-06 14:53:00
8:53 AM,34.0,26.1,73,30.08,10.0,NE,6.9,-,0.00,,Overcast,50,2012-12-06 15:53:00
9:53 AM,37.0,26.1,65,30.07,10.0,East,9.2,-,N/A,,Clear,100,2012-12-06 16:53:00
10:53 AM,39.9,24.1,53,30.05,10.0,ESE,9.2,-,N/A,,Partly Cloudy,120,2012-12-06 17:53:00
11:53 AM,42.1,23.0,47,29.99,10.0,East,6.9,-,N/A,,Clear,100,2012-12-06 18:53:00
12:53 PM,42.1,23.0,47,29.99,10.0,SSE,9.2,-,N/A,,Clear,160,2012-12-06 19:53:00
1:53 PM,41.0,25.0,53,29.96,10.0,SSE,8.1,-,N/A,,Clear,150,2012-12-06 20:53:00
2:53 PM,44.1,26.1,49,29.93,10.0,SSE,11.5,-,N/A,,Clear,150,2012-12-06 21:53:00
3:53 PM,41.0,25.0,53,29.93,10.0,ESE,13.8,-,N/A,,Clear,120,2012-12-06 22:53:00
4:53 PM,36.0,23.0,59,29.94,10.0,ESE,10.4,-,N/A,,Clear,110,2012-12-06 23:53:00
5:53 PM,33.1,21.0,61,29.96,10.0,ESE,11.5,-,N/A,,Clear,110,2012-12-07 00:53:00
6:53 PM,32.0,21.0,64,29.96,10.0,ESE,11.5,-,N/A,,Clear,110,2012-12-07 01:53:00
7:53 PM,30.9,21.9,69,29.96,10.0,ESE,11.5,-,N/A,,Clear,120,2012-12-07 02:53:00
8:53 PM,30.0,21.9,72,29.96,10.0,ESE,11.5,-,N/A,,Clear,110,2012-12-07 03:53:00
9:53 PM,28.9,21.9,75,29.94,10.0,ESE,12.7,-,N/A,,Clear,110,2012-12-07 04:53:00
10:53 PM,30.0,23.0,75,29.92,10.0,ESE,12.7,-,N/A,,Clear,120,2012-12-07 05:53:00
11:53 PM,30.0,21.9,72,29.89,10.0,ESE,10.4,-,N/A,,Mostly Cloudy,120,2012-12-07 06:53:00